GW2510 Weather Reports


Display with metric or nautical units.
time (UTC)temp
F
wind
direction
speed
MPH
gust
MPH
rain 1hr
in
rain 24hr
in
rain mn
in
humidity
%
barometer
mb
20260503214913 61 182 7.0 11.0 0.00 0.00 0.00 52 1010.6
20260503214411 60 200 5.0 14.0 0.00 0.00 0.00 52 1010.5
20260503213908 60 221 6.0 10.0 0.00 0.00 0.00 52 1010.7
20260503213406 60 190 9.0 15.0 0.00 0.00 0.00 52 1010.5
20260503212902 60 166 12.0 16.0 0.00 0.00 0.00 52 1010.8
20260503212400 61 166 5.0 13.0 0.00 0.00 0.00 53 1010.6
20260503211857 62 199 11.0 16.0 0.00 0.00 0.00 50 1011.0
20260503211354 62 240 12.0 14.0 0.00 0.00 0.00 50 1011.4
20260503210848 61 211 9.0 16.0 0.00 0.00 0.00 51 1011.4
20260503210346 61 182 6.0 17.0 0.00 0.00 0.00 51 1011.3
20260503205841 61 259 10.0 22.0 0.00 0.00 0.00 51 1011.4
20260503205338 61 250 13.0 16.0 0.00 0.00 0.00 50 1011.7
20260503204834 61 201 6.0 11.0 0.00 0.00 0.00 51 1012.1
20260503204332 62 207 2.0 4.0 0.00 0.00 0.00 51 1012.0
20260503203829 62 178 10.0 17.0 0.00 0.00 0.00 49 1012.1
20260503203326 62 184 9.0 13.0 0.00 0.00 0.00 49 1011.7
20260503202823 62 190 9.0 13.0 0.00 0.00 0.00 48 1012.0
20260503202321 62 190 11.0 13.0 0.00 0.00 0.00 48 1012.1
20260503201819 62 223 12.0 18.0 0.00 0.00 0.00 49 1012.4
20260503201316 62 157 7.0 26.0 0.00 0.00 0.00 50 1012.6
20260503200814 63 228 11.0 16.0 0.00 0.00 0.00 48 1013.1
20260503200309 62 218 7.0 14.0 0.00 0.00 0.00 50 1012.5
20260503195807 61 193 11.0 14.0 0.00 0.00 0.00 48 1013.1
20260503195304 61 189 6.0 11.0 0.00 0.00 0.00 49 1013.4
20260503194800 60 223 7.0 10.0 0.00 0.00 0.00 49 1013.8
20260503194256 60 246 9.0 11.0 0.00 0.00 0.00 49 1014.2
20260503193753 60 221 7.0 16.0 0.00 0.00 0.00 49 1014.4
20260503193249 60 222 4.0 14.0 0.00 0.00 0.00 50 1014.3
20260503192745 61 263 11.0 16.0 0.00 0.00 0.00 48 1014.6
20260503192240 61 248 7.0 17.0 0.00 0.00 0.00 48 1014.5
20260503191737 61 214 9.0 18.0 0.00 0.00 0.00 48 1014.6
20260503191234 60 214 11.0 15.0 0.00 0.00 0.00 48 1014.5
20260503190731 60 198 13.0 17.0 0.00 0.00 0.00 47 1014.4
20260503190227 60 211 16.0 19.0 0.00 0.00 0.00 47 1014.6
20260503185725 60 249 9.0 21.0 0.00 0.00 0.00 48 1014.7
20260503185220 60 253 9.0 14.0 0.00 0.00 0.00 47 1014.7
20260503184715 61 239 9.0 16.0 0.00 0.00 0.00 48 1014.6
20260503184211 61 200 15.0 19.0 0.00 0.00 0.00 46 1014.5
20260503183708 62 228 11.0 16.0 0.00 0.00 0.00 48 1014.5
20260503183205 62 279 7.0 14.0 0.00 0.00 0.00 47 1014.5
20260503182704 61 224 4.0 10.0 0.00 0.00 0.00 50 1014.5
20260503182202 60 237 10.0 14.0 0.00 0.00 0.00 49 1014.9
20260503181658 62 221 10.0 19.0 0.00 0.00 0.00 49 1014.8
20260503181155 62 239 12.0 18.0 0.00 0.00 0.00 49 1015.1
20260503180651 62 237 9.0 13.0 0.00 0.00 0.00 47 1014.8
20260503180150 62 215 6.0 15.0 0.00 0.00 0.00 52 1015.2
20260503175647 61 170 6.0 11.0 0.00 0.00 0.00 51 1015.3
20260503175144 61 185 9.0 13.0 0.00 0.00 0.00 48 1015.6
20260503174640 61 189 8.0 16.0 0.00 0.00 0.00 48 1015.5
20260503174137 60 169 9.0 15.0 0.00 0.00 0.00 50 1015.8
20260503173632 60 239 12.0 15.0 0.00 0.00 0.00 50 1016.0
20260503173129 60 252 7.0 13.0 0.00 0.00 0.00 53 1016.0
20260503172626 60 202 11.0 17.0 0.00 0.00 0.00 52 1016.3
20260503172124 61 213 14.0 16.0 0.00 0.00 0.00 50 1016.1
20260503171620 60 204 9.0 15.0 0.00 0.00 0.00 50 1016.3
20260503171117 61 251 11.0 16.0 0.00 0.00 0.00 52 1016.5
20260503170614 60 241 5.0 14.0 0.00 0.00 0.00 52 1016.3
20260503170111 59 221 7.0 10.0 0.00 0.00 0.00 52 1016.6
20260503151006 56 254 6.0 9.0 0.00 0.00 0.00 58 1018.1
20260503150502 55 197 5.0 10.0 0.00 0.00 0.00 59 1018.2
20260503131355 48 212 4.0 7.0 0.00 0.00 0.00 71 1018.6
20260503130853 48 177 6.0 7.0 0.00 0.00 0.00 70 1018.4
20260503130350 47 197 6.0 8.0 0.00 0.00 0.00 71 1018.6
20260503110744 39 228 0.0 3.0 0.00 0.00 0.00 82 1018.1
20260503110241 38 259 1.0 2.0 0.00 0.00 0.00 83 1018.1
20260503100207 38 259 0.0 0.0 0.00 0.00 0.00 84 1018.0
20260503090131 38 239 1.0 1.0 0.00 0.00 0.00 82 1018.2
20260503081602 38 275 0.0 0.0 0.00 0.00 0.00 83 1018.1
20260503081059 38 206 0.0 0.0 0.00 0.00 0.00 83 1018.1
20260503080554 38 229 0.0 0.0 0.00 0.00 0.00 83 1018.2
20260503072528 37 255 0.0 0.0 0.00 0.00 0.00 87 1018.2
20260503072026 37 226 0.0 0.0 0.00 0.00 0.00 86 1018.2
20260503071522 37 274 0.0 0.0 0.00 0.00 0.00 87 1018.2
20260503071019 37 260 0.0 0.0 0.00 0.00 0.00 85 1018.3
20260503070516 37 248 0.0 0.0 0.00 0.00 0.00 88 1018.4
20260503054939 36 57 0.0 0.0 0.00 0.00 0.00 96 1018.7
20260503054436 36 57 0.0 0.0 0.00 0.00 0.00 96 1018.6
20260503053933 36 57 0.0 0.0 0.00 0.00 0.00 96 1018.7
20260503053431 36 57 0.0 0.0 0.00 0.00 0.00 95 1018.7
20260503052927 36 57 0.0 0.0 0.00 0.00 0.00 95 1018.7
20260503052425 36 57 0.0 0.0 0.00 0.00 0.00 95 1018.6
20260503051921 36 57 0.0 0.0 0.00 0.00 0.00 95 1018.7
20260503051417 36 57 0.0 0.0 0.00 0.00 0.00 95 1018.6
20260503050914 36 57 0.0 0.0 0.00 0.00 0.00 95 1018.6
20260503050410 37 57 0.0 0.0 0.00 0.00 0.00 94 1018.8
20260503045908 37 57 0.0 0.0 0.00 0.00 0.00 95 1018.7
20260503045405 37 57 0.0 0.0 0.00 0.00 0.00 94 1018.8
20260503044902 37 54 0.0 0.0 0.00 0.00 0.00 93 1018.7
20260503044359 37 18 0.0 0.0 0.00 0.00 0.00 93 1018.7
20260503043856 37 18 0.0 0.0 0.00 0.00 0.00 93 1018.8
20260503043353 37 18 0.0 0.0 0.00 0.00 0.00 92 1018.9
20260503042849 37 15 0.0 0.0 0.00 0.00 0.00 91 1018.8
20260503042346 37 15 0.0 0.0 0.00 0.00 0.00 91 1018.7
20260503041842 37 4 0.0 0.0 0.00 0.00 0.00 90 1018.8
20260503041339 37 325 0.0 0.0 0.00 0.00 0.00 91 1018.8
20260503040837 37 325 0.0 0.0 0.00 0.00 0.00 89 1018.7
20260503040334 37 325 0.0 0.0 0.00 0.00 0.00 89 1018.8
20260503035831 38 325 0.0 0.0 0.00 0.00 0.00 89 1019.0
20260503035328 38 325 0.0 0.0 0.00 0.00 0.00 90 1018.9
20260503034825 38 321 0.0 0.0 0.00 0.00 0.00 89 1018.9
20260503034323 38 321 0.0 0.0 0.00 0.00 0.00 89 1019.0
20260503033820 38 321 0.0 0.0 0.00 0.00 0.00 90 1018.8
20260503033317 38 321 0.0 0.0 0.00 0.00 0.00 90 1018.9
20260503032815 39 321 0.0 0.0 0.00 0.00 0.00 89 1018.7
20260503032314 39 321 0.0 0.0 0.00 0.00 0.00 89 1018.7
20260503031811 39 321 0.0 0.0 0.00 0.00 0.00 87 1018.9
20260503031309 39 321 0.0 0.0 0.00 0.00 0.00 87 1018.7
20260503030804 39 321 0.0 0.0 0.00 0.00 0.00 87 1018.8
20260503030301 39 321 0.0 0.0 0.00 0.00 0.00 87 1018.7
20260503025758 39 321 0.0 0.0 0.00 0.00 0.00 86 1019.0
20260503025255 40 321 0.0 0.0 0.00 0.00 0.00 89 1018.9
20260503024752 40 321 0.0 0.0 0.00 0.00 0.00 88 1018.8
20260503024249 40 321 0.0 0.0 0.00 0.00 0.00 87 1018.9
20260503023746 40 321 0.0 0.0 0.00 0.00 0.00 87 1018.8
20260503023243 40 321 0.0 0.0 0.00 0.00 0.00 87 1018.8
20260503022739 40 321 0.0 0.0 0.00 0.00 0.00 84 1018.7
20260503022239 41 321 0.0 0.0 0.00 0.00 0.00 84 1018.8
20260503021736 41 321 0.0 0.0 0.00 0.00 0.00 82 1018.6
20260503021232 41 321 0.0 0.0 0.00 0.00 0.00 81 1018.5
20260503020730 42 321 0.0 0.0 0.00 0.00 0.00 81 1018.7
20260503020228 42 321 0.0 0.0 0.00 0.00 0.00 79 1018.8
20260503015724 42 321 0.0 0.0 0.00 0.00 0.00 76 1018.8
20260503015221 42 321 0.0 0.0 0.00 0.00 0.00 76 1018.5
20260503014717 43 321 0.0 0.0 0.00 0.00 0.00 74 1018.5
20260503014215 43 321 0.0 0.0 0.00 0.00 0.00 73 1018.5
20260503013712 43 321 0.0 0.0 0.00 0.00 0.00 72 1018.3
20260503013210 43 321 0.0 0.0 0.00 0.00 0.00 71 1018.2
20260503012707 44 321 0.0 0.0 0.00 0.00 0.00 72 1018.3
20260503012204 44 321 0.0 0.0 0.00 0.00 0.00 71 1018.3
20260503011700 45 321 0.0 0.0 0.00 0.00 0.00 70 1018.3
20260503011157 45 321 0.0 0.0 0.00 0.00 0.00 66 1018.4
20260503010653 45 332 0.0 0.0 0.00 0.00 0.00 68 1018.1
20260503010151 46 332 0.0 0.0 0.00 0.00 0.00 67 1018.2
20260503005648 47 333 0.0 0.0 0.00 0.00 0.00 68 1018.2
20260503005145 47 333 0.0 0.0 0.00 0.00 0.00 62 1018.2
20260503004641 48 333 0.0 0.0 0.00 0.00 0.00 58 1018.2
20260503004140 48 332 0.0 0.0 0.00 0.00 0.00 54 1018.3
20260503003636 0 0.0 0.0 0.00 0.00 0.00 1018.1
20260503003133 0 0.0 0.0 0.00 0.00 0.00 1018.1
20260503002630 52 338 0.0 0.0 0.00 0.00 0.00 46 1018.0
20260503002127 52 338 0.0 0.0 0.00 0.00 0.00 46 1017.9
20260503001623 53 5 0.0 0.0 0.00 0.00 0.00 45 1018.1
20260503001120 53 350 2.0 2.0 0.00 0.00 0.00 44 1018.2
20260503000618 53 22 0.0 0.0 0.00 0.00 0.00 46 1018.0
20260503000115 53 342 1.0 2.0 0.00 0.00 0.00 44 1018.2
20260502235611 53 21 0.0 0.0 0.00 0.00 0.00 44 1017.9
20260502235110 53 359 0.0 0.0 0.00 0.00 0.00 45 1018.2
20260502234605 52 1 1.0 2.0 0.00 0.00 0.00 43 1018.0
20260502234103 52 352 2.0 4.0 0.00 0.00 0.00 44 1018.0
20260502233603 53 346 4.0 6.0 0.00 0.00 0.00 43 1017.9
20260502233101 53 342 1.0 3.0 0.00 0.00 0.00 45 1018.2
20260502232556 52 28 0.0 0.0 0.00 0.00 0.00 47 1018.1
20260502232054 53 39 1.0 4.0 0.00 0.00 0.00 44 1017.9
20260502231551 53 21 1.0 2.0 0.00 0.00 0.00 42 1018.2
20260502231049 53 348 2.0 4.0 0.00 0.00 0.00 42 1018.1
20260502230547 53 14 2.0 2.0 0.00 0.00 0.00 42 1018.0
20260502230045 54 30 1.0 3.0 0.00 0.00 0.00 42 1018.0
20260502225540 55 326 2.0 4.0 0.00 0.00 0.00 39 1017.9
20260502225037 56 43 4.0 9.0 0.00 0.00 0.00 40 1017.9
20260502224533 56 351 3.0 6.0 0.00 0.00 0.00 36 1018.2
20260502224031 55 346 4.0 6.0 0.00 0.00 0.00 38 1018.0
20260502223528 55 316 2.0 6.0 0.00 0.00 0.00 38 1018.0
20260502223027 55 2 5.0 7.0 0.00 0.00 0.00 38 1018.0
20260502222523 54 287 3.0 7.0 0.00 0.00 0.00 38 1018.1
20260502222020 55 274 4.0 8.0 0.00 0.00 0.00 38 1017.9
20260502221515 55 351 11.0 15.0 0.00 0.00 0.00 39 1018.2
20260502221013 56 10 3.0 8.0 0.00 0.00 0.00 37 1018.0
20260502220508 56 344 4.0 9.0 0.00 0.00 0.00 36 1018.2
20260502220005 55 280 3.0 8.0 0.00 0.00 0.00 39 1018.0
20260502215503 55 300 4.0 13.0 0.00 0.00 0.00 37 1018.1